Regional Weather Roundup
Issued by NWS

Home | Current Version | Previous Version | Text Only | Print | Product List | Glossary On
Versions: 1 2 3 4 5 6 7 8 9 10 11 12 13 14 15 16 17 18 19 20 21 22 23 24 25 26 27
000
ASUS45 KBOU 220307
RWRCO

WEATHER ROUNDUP FOR COLORADO
NATIONAL WEATHER SERVICE DENVER/BOULDER CO
900 PM MDT TUE MAR 21 2017

NOTE: "FAIR" INDICATES FEW OR NO CLOUDS BELOW 12000 FEET WITH NO
SIGNIFICANT WEATHER AND/OR OBSTRUCTIONS TO VISIBILITY.

COZ001>005-013-030-031-220400-
...NORTHWEST COLORADO...

CITY           SKY/WX    TMP DP  RH WIND       PRES   REMARKS
CRAIG          FAIR      57  25  29 SW8       30.05R
HAYDEN         MOCLDY    55  21  26 S6        30.08R
MEEKER         MOCLDY    52  25  35 CALM      30.06R
MOUNT WERNER   NOT AVBL
STEAMBOAT SPGS CLOUDY    54  23  30 NE3       30.10R
WALDEN         NOT AVBL
$$

COZ006>008-011-220400-
...WEST CENTRAL VALLEYS...

CITY           SKY/WX    TMP DP  RH WIND       PRES   REMARKS
GRAND JUNCTION FAIR      64  27  24 S6        30.00R
MONTROSE       FAIR      59  30  33 S12       30.10F
EAGLE          CLEAR     59  25  27 SW21G26   30.13R
RIFLE          FAIR      63  30  28 SE21      30.03S
DELTA          FAIR      60  28  29 NE5       30.06R
NUCLA          FAIR      55  21  26 SE9       30.12S
$$

COZ017>023-064>068-220400-
...SOUTHWEST COLORADO...

CITY           SKY/WX    TMP DP  RH WIND       PRES   REMARKS
DURANGO        FAIR      51  28  41 NE6       30.16S
CORTEZ         FAIR      50  29  44 E3        30.09S
PAGOSA SPRINGS FAIR      51  28  40 NW3       30.24S
TELLURIDE      NOT AVBL
WOLF CREEK PAS MOCLDY    32  23  69 S8        30.47R WCI  25
$$

COZ009-010-012-014-032>034-037-058>063-220400-
...CENTRAL COLORADO...

CITY           SKY/WX    TMP DP  RH WIND       PRES   REMARKS
ASPEN          FAIR      51  30  44 S15       30.21R
BUENA VISTA    MOCLDY    46  20  35 CALM      30.22R
COPPER MTN     FAIR      37  18  44 MISG      30.37R
BERTHOUD PASS  MOCLDY    32  21  64 SW7G16    30.38S WCI  26
COTTONWOOD PAS MOCLDY    48  18  29 SW9       30.31R
GUNNISON       FAIR      46  31  55 NE13      30.24R
KREMMLING      FAIR      55  19  24 SE7       30.14S
LEADVILLE      FAIR      39  21  48 S8        30.27R
MONARCH PASS   CLOUDY    34  23  64 SW25G32   30.51R WCI  21
SALIDA         FAIR      51  24  33 W8        30.28R
SUNLIGHT       NOT AVBL
WILKERSON PASS FAIR      36  21  55 SW5       30.38R
$$

COZ069>075-220400-
...SAN LUIS VALLEY/SANGRE DE CRISTO MOUNTAINS...

CITY           SKY/WX    TMP DP  RH WIND       PRES   REMARKS
ALAMOSA        FAIR      49  26  41 S6        30.21R
LA VETA PASS   CLOUDY    45  23  42 S15G26    30.35R
SAGUACHE       FAIR      46  23  39 N7        30.24R
$$

COZ035-036-038>040-220400-
...NORTHERN COLORADO FRONT RANGE...

CITY           SKY/WX    TMP DP  RH WIND       PRES   REMARKS
DENVER INTL AP FAIR      48  32  53 SE13      30.11R
DMNS CITY PARK   N/A     53  33  46 E6        30.11R
AURORA         PTCLDY    51  34  52 S10       30.12S
FRONT RANGE AP NOT AVBL
ERIE MUNI ARPT FAIR      51  33  49 SW3       30.10R
BOULDER MUN AP FAIR      55  34  44 CALM      30.09R
CENTENNIAL     FAIR      52  34  50 SW14      30.12R
BROOMFIELD     CLOUDY    54  34  47 CALM      30.11
FORT COLLINS   FAIR      51  37  58 N10       30.09R
LONGMONT       FAIR      57  36  45 NW7       30.11R
$$

COZ041-046-047-076>085-087-088-220400-
...PIKES PEAK/PALMER DIVIDE AND SOUTHERN FOOTHILLS...

CITY           SKY/WX    TMP DP  RH WIND       PRES   REMARKS
COLO. SPRINGS  MOCLDY    48  34  58 SE14      30.21R
A. F. ACADEMY  FAIR      48  34  58 S14       30.20R
SCHRIEVER AFB  FAIR      45  35  66 E7        30.22R
ELLICOTT         N/A    N/A N/A N/A E13       30.20R
FALCON         FAIR      44  34  68 S12       30.23R
FORT CARSON    FAIR      49  35  58 E15       30.20R
LIMON          FAIR      46  35  65 SE16      30.20R
MONUMENT HILL  FAIR      43  34  70 S20G25    30.20R
TRINIDAD       CLOUDY    61  34  36 E8        30.14R
$$

COZ042>045-048>051-090-091-220400-
...NORTHEAST COLORADO...

CITY           SKY/WX    TMP DP  RH WIND       PRES   REMARKS
GREELEY ARPT   FAIR      53  37  54 E14       30.11R
AKRON          FAIR      47  24  40 SE24G31   30.19R
BURLINGTON     FAIR      45  29  53 SE14      30.24R
WRAY           NOT AVBL
STERLING       FAIR      48  27  43 SE22      30.17R
HOLYOKE        FAIR      48  25  40 SE17G24   30.24R
FORT MORGAN    FAIR      50  32  49 SE14      30.15R
$$

COZ086-089-092>099-220400-
...SOUTHEAST COLORADO...

CITY           SKY/WX    TMP DP  RH WIND       PRES   REMARKS
PUEBLO         FAIR      55  36  48 NE17G29   30.13R
LA JUNTA       FAIR      55  37  50 E18       30.15R
LAMAR          FAIR      52  33  48 E14       30.17R
SPRINGFIELD      N/A     49  36  61 SE9       30.21R
$$




USA.gov is the U.S. government's official web portal to all federal, state and local government web resources and services.